Regional Weather Roundup
Issued by NWS Little Rock, AR

Home | Current Version | Previous Version | Graphics & Text | Print | Product List | Glossary On
Versions: 1 2 3 4 5 6 7 8 9 10 11 12 13 14 15 16 17 18 19 20 21 22 23 24 25 26 27 28 29 30 31 32 33 34 35 36 37 38 39 40
000
ASUS44 KLZK 190210
RWRLZK
ARKANSAS STATE WEATHER ROUNDUP
NATIONAL WEATHER SERVICE LITTLE ROCK AR
ISSUED BY NATIONAL WEATHER SERVICE MEMPHIS TN
900 PM CDT MON SEP 18 2017

NOTE: "FAIR" INDICATES FEW OR NO CLOUDS BELOW 12,000 FEET WITH NO
SIGNIFICANT WEATHER AND/OR OBSTRUCTIONS TO VISIBILITY.

ARZ001-003-010-029-190300-
NORTHWEST ARKANSAS

CITY           SKY/WX    TMP DP  RH WIND       PRES   REMARKS
FORT SMITH     CLEAR     77  68  73 CALM      29.92R
HARRISON       CLEAR     70  68  93 CALM      30.00R
BENTONVILLE    CLEAR     74  68  81 CALM      30.00R
ROGERS         CLEAR     71  68  90 CALM      30.00R
SILOAM SPGS    CLEAR     73  65  75 CALM      29.99R
HIGHFILL       CLEAR     71  66  84 CALM      29.99R
SPRINGDALE     CLEAR     73  72  94 CALM      30.00R
$$

ARZ004-005-016-190300-
NORTH CENTRAL ARKANSAS

CITY           SKY/WX    TMP DP  RH WIND       PRES   REMARKS
BATESVILLE     MOCLDY   N/A N/A N/A S7        29.99R THUNDER
FLIPPIN        CLEAR     70  69  97 CALM      29.99R
MTN HOME       CLEAR     70  70 100 CALM      29.98R
$$

ARZ040-041-190300-
WEST CENTRAL ARKANSAS

CITY           SKY/WX    TMP DP  RH WIND       PRES   REMARKS
MOUNT IDA      CLEAR     76  62  62 CALM      29.94R
$$

ARZ017-025-026-028-190300-
NORTHEAST ARKANSAS

CITY           SKY/WX    TMP DP  RH WIND       PRES   REMARKS
JONESBORO      MOCLDY    74  74 100 CALM      29.96S
NEWPORT        LGT RAIN  75  73  93 S3        29.97R
BLYTHEVILLE    PTCLDY    72  70  93 NW5       29.96S
$$

ARZ022-033-042-044-190300-
CENTRAL ARKANSAS

CITY           SKY/WX    TMP DP  RH WIND       PRES   REMARKS
LITTLE ROCK    CLEAR     76  73  91 SE6       29.94R
JACKSONVILLE   CLEAR     77  70  79 CALM      29.94R
SEARCY         CLOUDY    77  70  79 N15G28    30.01R
HOT SPRINGS    CLEAR     83  66  56 S3        29.96R
RUSSELLVILLE   CLEAR     76  71  85 CALM      29.93R
$$

ARZ036-190300-
EAST ARKANSAS

CITY           SKY/WX    TMP DP  RH WIND       PRES   REMARKS
WEST MEMPHIS   CLEAR     74  73  97 CALM      29.95R
$$

ARZ050-070-073-190300-
SOUTHWEST ARKANSAS

CITY           SKY/WX    TMP DP  RH WIND       PRES   REMARKS
TEXARKANA      CLEAR     75  68  78 CALM      29.94R
EL DORADO      CLEAR     76  73  91 CALM      29.96R
DEQUEEN        CLEAR     73  72  96 CALM      29.93R
$$

ARZ056-057-069-190300-
SOUTHEAST ARKANSAS

CITY           SKY/WX    TMP DP  RH WIND       PRES   REMARKS
PINE BLUFF     CLEAR     76  72  87 S6        29.95S
STUTTGART      CLEAR     77  72  84 S6        29.97R
MONTICELLO     CLEAR     76  74  93 CALM      29.96S
$$





USA.gov is the U.S. government's official web portal to all federal, state and local government web resources and services.